TimeAKDT,TemperatureF,Dew PointF,Humidity,Sea Level PressureIn,VisibilityMPH,Wind Direction,Wind SpeedMPH,Gust SpeedMPH,PrecipitationIn,Events,Conditions,WindDirDegrees,DateUTC
12:16 AM,51.8,39.2,62,29.50,10.0,North,-9999.0,-,N/A,,Mostly Cloudy,0,2012-10-04 08:16:00
12:36 AM,51.8,39.2,62,29.50,10.0,North,-9999.0,-,N/A,,Mostly Cloudy,0,2012-10-04 08:36:00
12:56 AM,51.8,39.2,62,29.50,10.0,North,-9999.0,-,N/A,,Mostly Cloudy,0,2012-10-04 08:56:00
1:16 AM,51.8,39.2,62,29.50,10.0,North,-9999.0,-,N/A,,Overcast,0,2012-10-04 09:16:00
1:36 AM,51.8,39.2,62,29.51,10.0,North,-9999.0,-,N/A,,Overcast,0,2012-10-04 09:36:00
1:56 AM,51.8,39.2,62,29.51,10.0,North,-9999.0,-,N/A,,Mostly Cloudy,0,2012-10-04 09:56:00
2:16 AM,51.8,39.2,62,29.52,10.0,North,-9999.0,-,N/A,,Mostly Cloudy,0,2012-10-04 10:16:00
2:36 AM,51.8,39.2,62,29.52,10.0,North,-9999.0,-,N/A,,Mostly Cloudy,0,2012-10-04 10:36:00
2:56 AM,-9999,-9999,N/A,29.52,10.0,North,-9999.0,-,N/A,,Overcast,0,2012-10-04 10:56:00
3:16 AM,51.8,39.2,62,29.52,10.0,North,-9999.0,-,N/A,,Overcast,0,2012-10-04 11:16:00
3:36 AM,51.8,39.2,62,29.55,10.0,North,-9999.0,-,N/A,,Mostly Cloudy,0,2012-10-04 11:36:00
3:56 AM,51.8,37.4,58,29.56,10.0,North,-9999.0,-,N/A,,Mostly Cloudy,0,2012-10-04 11:56:00
4:16 AM,51.8,37.4,58,29.57,10.0,North,-9999.0,-,N/A,,Overcast,0,2012-10-04 12:16:00
4:36 AM,51.8,37.4,58,29.59,10.0,North,-9999.0,-,N/A,,Overcast,0,2012-10-04 12:36:00
4:56 AM,51.8,37.4,58,29.60,10.0,North,-9999.0,-,N/A,,Overcast,0,2012-10-04 12:56:00
5:16 AM,51.8,37.4,58,29.61,10.0,North,-9999.0,-,N/A,,Overcast,0,2012-10-04 13:16:00
5:36 AM,50.0,37.4,62,29.61,10.0,North,-9999.0,-,N/A,,Overcast,0,2012-10-04 13:36:00
5:56 AM,50.0,37.4,62,29.63,10.0,North,-9999.0,-,N/A,,Overcast,0,2012-10-04 13:56:00
6:16 AM,50.0,37.4,62,29.64,10.0,North,-9999.0,-,N/A,,Overcast,0,2012-10-04 14:16:00
6:36 AM,51.8,35.6,54,29.66,10.0,North,-9999.0,-,N/A,,Overcast,0,2012-10-04 14:36:00
6:56 AM,50.0,37.4,62,29.67,10.0,North,-9999.0,-,N/A,,Overcast,0,2012-10-04 14:56:00
7:16 AM,50.0,37.4,62,29.67,10.0,North,-9999.0,-,N/A,,Overcast,0,2012-10-04 15:16:00
7:36 AM,50.0,35.6,58,29.68,10.0,North,-9999.0,-,N/A,,Overcast,0,2012-10-04 15:36:00
7:56 AM,48.2,37.4,66,29.69,10.0,North,-9999.0,-,N/A,,Overcast,0,2012-10-04 15:56:00
8:16 AM,48.2,35.6,62,29.70,10.0,North,-9999.0,-,N/A,,Overcast,0,2012-10-04 16:16:00
8:36 AM,50.0,33.8,54,29.71,10.0,North,-9999.0,-,N/A,,Overcast,0,2012-10-04 16:36:00
8:56 AM,50.0,32.0,50,29.72,10.0,North,-9999.0,-,N/A,,Overcast,0,2012-10-04 16:56:00
9:16 AM,50.0,32.0,50,29.72,10.0,North,-9999.0,-,N/A,,Overcast,0,2012-10-04 17:16:00
9:36 AM,50.0,33.8,54,29.73,10.0,North,-9999.0,-,N/A,,Overcast,0,2012-10-04 17:36:00
9:56 AM,50.0,33.8,54,29.74,10.0,North,-9999.0,-,N/A,,Overcast,0,2012-10-04 17:56:00
10:16 AM,48.2,35.6,62,29.75,10.0,North,-9999.0,-,N/A,,Overcast,0,2012-10-04 18:16:00
10:36 AM,48.2,37.4,66,29.76,10.0,North,-9999.0,-,N/A,,Overcast,0,2012-10-04 18:36:00
10:56 AM,48.2,35.6,62,29.77,10.0,North,-9999.0,-,N/A,,Overcast,0,2012-10-04 18:56:00
11:16 AM,48.2,35.6,62,29.78,10.0,North,-9999.0,-,N/A,,Overcast,0,2012-10-04 19:16:00
11:36 AM,48.2,35.6,62,29.79,10.0,North,-9999.0,-,N/A,,Overcast,0,2012-10-04 19:36:00
11:56 AM,48.2,37.4,66,29.80,10.0,North,-9999.0,-,N/A,,Overcast,0,2012-10-04 19:56:00
12:16 PM,48.2,37.4,66,29.81,10.0,North,-9999.0,-,N/A,,Overcast,0,2012-10-04 20:16:00
12:36 PM,48.2,37.4,66,29.81,10.0,North,-9999.0,-,N/A,,Overcast,0,2012-10-04 20:36:00
12:56 PM,48.2,37.4,66,29.82,10.0,North,-9999.0,-,N/A,,Overcast,0,2012-10-04 20:56:00
1:16 PM,48.2,37.4,66,29.83,8.0,North,-9999.0,-,N/A,,Overcast,0,2012-10-04 21:16:00
1:36 PM,48.2,39.2,71,29.84,10.0,North,-9999.0,-,N/A,,Overcast,0,2012-10-04 21:36:00
1:56 PM,48.2,41.0,76,29.85,10.0,North,-9999.0,-,N/A,,Overcast,0,2012-10-04 21:56:00
2:16 PM,48.2,41.0,76,29.86,10.0,North,-9999.0,-,N/A,,Overcast,0,2012-10-04 22:16:00
2:36 PM,48.2,39.2,71,29.86,10.0,North,-9999.0,-,N/A,,Overcast,0,2012-10-04 22:36:00
2:56 PM,50.0,39.2,66,29.86,10.0,North,-9999.0,-,N/A,,Overcast,0,2012-10-04 22:56:00
3:16 PM,51.8,39.2,62,29.86,10.0,North,-9999.0,-,N/A,,Overcast,0,2012-10-04 23:16:00
3:36 PM,51.8,35.6,54,29.87,10.0,North,-9999.0,-,N/A,,Overcast,0,2012-10-04 23:36:00
3:56 PM,51.8,35.6,54,29.86,10.0,North,-9999.0,-,N/A,,Overcast,0,2012-10-04 23:56:00
4:16 PM,51.8,35.6,54,29.86,10.0,North,-9999.0,-,N/A,,Overcast,0,2012-10-05 00:16:00
4:36 PM,51.8,33.8,50,29.87,10.0,North,-9999.0,-,N/A,,Mostly Cloudy,0,2012-10-05 00:36:00
4:56 PM,51.8,33.8,50,29.88,10.0,North,-9999.0,-,N/A,,Scattered Clouds,0,2012-10-05 00:56:00
5:16 PM,51.8,30.2,44,29.88,10.0,North,-9999.0,-,N/A,,Clear,0,2012-10-05 01:16:00
5:36 PM,51.8,30.2,44,29.89,10.0,North,-9999.0,-,N/A,,Clear,0,2012-10-05 01:36:00
5:56 PM,51.8,30.2,44,29.90,10.0,North,-9999.0,-,N/A,,Clear,0,2012-10-05 01:56:00
6:16 PM,51.8,30.2,44,29.90,10.0,North,-9999.0,-,N/A,,Clear,0,2012-10-05 02:16:00
6:36 PM,50.0,30.2,47,29.91,10.0,North,-9999.0,-,N/A,,Partly Cloudy,0,2012-10-05 02:36:00
6:56 PM,50.0,32.0,50,29.91,10.0,North,-9999.0,-,N/A,,Partly Cloudy,0,2012-10-05 02:56:00
7:16 PM,50.0,30.2,47,29.92,10.0,North,-9999.0,-,N/A,,Scattered Clouds,0,2012-10-05 03:16:00
7:36 PM,48.2,33.8,58,29.93,10.0,North,-9999.0,-,N/A,,Partly Cloudy,0,2012-10-05 03:36:00
7:56 PM,48.2,30.2,50,29.94,10.0,North,-9999.0,-,N/A,,Scattered Clouds,0,2012-10-05 03:56:00
8:16 PM,48.2,32.0,54,29.94,10.0,North,-9999.0,-,N/A,,Mostly Cloudy,0,2012-10-05 04:16:00
8:36 PM,48.2,33.8,58,29.95,10.0,North,-9999.0,-,N/A,,Overcast,0,2012-10-05 04:36:00
8:56 PM,48.2,33.8,58,29.95,10.0,North,-9999.0,-,N/A,,Overcast,0,2012-10-05 04:56:00
9:16 PM,48.2,33.8,58,29.96,10.0,North,-9999.0,-,N/A,,Overcast,0,2012-10-05 05:16:00
9:36 PM,46.4,35.6,66,29.97,10.0,North,-9999.0,-,N/A,,Overcast,0,2012-10-05 05:36:00
9:56 PM,48.2,32.0,54,29.97,10.0,North,-9999.0,-,N/A,,Overcast,0,2012-10-05 05:56:00
10:16 PM,48.2,32.0,54,29.98,10.0,North,-9999.0,-,N/A,,Overcast,0,2012-10-05 06:16:00
10:36 PM,48.2,33.8,58,30.00,10.0,North,-9999.0,-,N/A,,Overcast,0,2012-10-05 06:36:00
10:56 PM,46.4,33.8,62,30.00,10.0,North,-9999.0,-,N/A,,Overcast,0,2012-10-05 06:56:00
11:16 PM,46.4,33.8,62,30.01,10.0,North,-9999.0,-,N/A,,Mostly Cloudy,0,2012-10-05 07:16:00
11:36 PM,48.2,32.0,54,30.01,10.0,North,-9999.0,-,N/A,,Mostly Cloudy,0,2012-10-05 07:36:00
11:56 PM,46.4,33.8,62,30.02,10.0,North,-9999.0,-,N/A,,Mostly Cloudy,0,2012-10-05 07:56:00